When you browse on this site, cookies collect data to enhance your experience and personalize the content and advertising you see.
Visit our Privacy Policy to learn more. By continuing to use the site, you agree to this use of cookies and data.
  • In Hungary
  • List of Countries
  • For 7 days
  • Water Temperature
  • Satellite Maps
  • Weather Map
  • News
  • Weather Widgets
  • user-avatar
    Login

    Hourly Weather Siodlary

    Today, 24 January, Thursday

    Time Temperature Precipitation Wind Pressure Humidity
    00:00 -8°C° 0 mm 3 mps 728 mmHg 77%
    01:00 -7°C° 0 mm 2 mps 728 mmHg 79%
    02:00 -9°C° 0 mm 3 mps 728 mmHg 79%
    03:00 -9°C° 0 mm 3 mps 728 mmHg 80%
    04:00 -9°C° 0 mm 3 mps 728 mmHg 80%
    05:00 -9°C° 0 mm 3 mps 729 mmHg 80%
    06:00 -9°C° 0 mm 3 mps 729 mmHg 79%
    07:00 -9°C° 0 mm 3 mps 729 mmHg 79%
    08:00 -9°C° 0 mm 3 mps 729 mmHg 77%
    09:00 -8°C° 0 mm 3 mps 730 mmHg 75%
    10:00 -8°C° 0 mm 3 mps 730 mmHg 73%
    11:00 -7°C° 0 mm 3 mps 730 mmHg 71%
    12:00 -7°C° 0 mm 3 mps 730 mmHg 69%
    13:00 -7°C° 0 mm 4 mps 730 mmHg 67%
    14:00 -8°C° 0 mm 4 mps 730 mmHg 68%
    15:00 -7°C° 0 mm 3 mps 730 mmHg 69%
    16:00 -7°C° 0 mm 3 mps 730 mmHg 70%
    17:00 -7°C° 0 mm 3 mps 730 mmHg 72%
    18:00 -7°C° 0 mm 3 mps 730 mmHg 75%
    19:00 -7°C° 0 mm 3 mps 730 mmHg 77%
    20:00 -8°C° 0 mm 3 mps 731 mmHg 77%
    21:00 -8°C° 0 mm 3 mps 731 mmHg 77%
    22:00 -7°C° 0 mm 2 mps 731 mmHg 77%
    23:00 -7°C° 0 mm 2 mps 731 mmHg 78%

    Tomorrow, 25 January, Friday

    Time Temperature Precipitation Wind Pressure Humidity
    00:00 -7°C° 0 mm 2 mps 731 mmHg 78%
    01:00 -7°C° 0 mm 2 mps 731 mmHg 79%
    02:00 -7°C° 0.1 mm 2 mps 731 mmHg 81%
    03:00 -7°C° 0.1 mm 2 mps 731 mmHg 82%
    04:00 -7°C° 0.1 mm 2 mps 731 mmHg 84%
    05:00 -7°C° 0.2 mm 2 mps 731 mmHg 85%
    06:00 -7°C° 0.2 mm 2 mps 732 mmHg 86%
    07:00 -7°C° 0.2 mm 2 mps 732 mmHg 87%
    08:00 -7°C° 0.1 mm 2 mps 732 mmHg 85%
    09:00 -7°C° 0.1 mm 2 mps 732 mmHg 83%
    10:00 -6°C° 0.1 mm 2 mps 733 mmHg 81%
    11:00 -6°C° 0 mm 2 mps 733 mmHg 78%
    12:00 -7°C° 0 mm 3 mps 733 mmHg 75%
    13:00 -6°C° 0 mm 3 mps 733 mmHg 72%
    14:00 -6°C° 0 mm 3 mps 733 mmHg 73%
    15:00 -6°C° 0 mm 3 mps 733 mmHg 74%
    16:00 -6°C° 0 mm 3 mps 734 mmHg 74%
    17:00 -6°C° 0 mm 2 mps 734 mmHg 76%
    18:00 -6°C° 0 mm 2 mps 734 mmHg 77%
    19:00 -6°C° 0 mm 2 mps 735 mmHg 78%
    20:00 -6°C° 0 mm 2 mps 735 mmHg 79%
    21:00 -7°C° 0 mm 2 mps 735 mmHg 81%
    22:00 -6°C° 0 mm 1 mps 735 mmHg 82%
    23:00 -7°C° 0 mm 2 mps 734 mmHg 81%

    Day after tomorrow, 26 January, Saturday

    Time Temperature Precipitation Wind Pressure Humidity
    00:00 -7°C° 0 mm 2 mps 734 mmHg 80%
    01:00 -8°C° 0 mm 3 mps 734 mmHg 78%
    02:00 -8°C° 0 mm 3 mps 733 mmHg 77%
    03:00 -9°C° 0 mm 4 mps 733 mmHg 76%
    04:00 -8°C° 0 mm 4 mps 732 mmHg 74%
    05:00 -8°C° 0 mm 5 mps 731 mmHg 76%
    06:00 -7°C° 0 mm 5 mps 731 mmHg 77%
    07:00 -6°C° 0 mm 6 mps 730 mmHg 79%
    08:00 -6°C° 0.2 mm 6 mps 729 mmHg 80%
    09:00 -6°C° 0.2 mm 7 mps 729 mmHg 80%
    10:00 -5°C° 0.2 mm 8 mps 728 mmHg 80%
    11:00 -4°C° 0.6 mm 8 mps 727 mmHg 80%
    12:00 -2°C° 0.6 mm 8 mps 727 mmHg 80%
    13:00 -1°C° 0.6 mm 9 mps 726 mmHg 79%
    14:00 -1°C° 0.4 mm 8 mps 726 mmHg 82%
    15:00 0°C° 0.4 mm 7 mps 726 mmHg 85%
    16:00 +1°C° 0.4 mm 5 mps 725 mmHg 88%
    17:00 +1°C° 0.6 mm 4 mps 726 mmHg 91%
    18:00 +1°C° 0.6 mm 3 mps 726 mmHg 93%
    19:00 +2°C° 0.6 mm 2 mps 726 mmHg 96%
    20:00 +1°C° 0.3 mm 2 mps 726 mmHg 95%
    21:00 +1°C° 0.3 mm 2 mps 726 mmHg 95%
    22:00 +2°C° 0.3 mm 1 mps 727 mmHg 95%
    23:00 +2°C° 0.1 mm 1 mps 727 mmHg 94%

    27 January, Sunday

    Time Temperature Precipitation Wind Pressure Humidity
    00:00 +1°C° 0.1 mm 2 mps 727 mmHg 94%
    01:00 +2°C° 0.1 mm 2 mps 726 mmHg 93%
    02:00 +2°C° 0.1 mm 2 mps 726 mmHg 93%
    03:00 +2°C° 0.1 mm 2 mps 726 mmHg 92%
    04:00 +2°C° 0.1 mm 2 mps 726 mmHg 92%
    05:00 +2°C° 0.3 mm 2 mps 725 mmHg 92%
    06:00 +2°C° 0.3 mm 2 mps 725 mmHg 92%
    07:00 +1°C° 0.3 mm 3 mps 725 mmHg 92%
    08:00 +1°C° 0.1 mm 3 mps 725 mmHg 91%
    09:00 +2°C° 0.1 mm 3 mps 724 mmHg 90%
    10:00 +2°C° 0.1 mm 3 mps 724 mmHg 89%
    11:00 +2°C° 0 mm 3 mps 724 mmHg 88%
    12:00 +3°C° 0 mm 3 mps 723 mmHg 87%
    13:00 +3°C° 0 mm 3 mps 723 mmHg 85%
    14:00 +3°C° 0 mm 3 mps 722 mmHg 86%
    15:00 +1°C° 0 mm 4 mps 722 mmHg 86%
    16:00 +1°C° 0 mm 4 mps 721 mmHg 86%
    17:00 0°C° 0 mm 4 mps 721 mmHg 85%
    18:00 0°C° 0 mm 4 mps 721 mmHg 83%
    19:00 0°C° 0 mm 4 mps 721 mmHg 81%
    20:00 0°C° 0.1 mm 4 mps 720 mmHg 82%
    21:00 0°C° 0.1 mm 4 mps 720 mmHg 82%
    22:00 -1°C° 0.1 mm 4 mps 720 mmHg 83%
    23:00 -1°C° 0.2 mm 4 mps 720 mmHg 84%

    28 January, Monday

    Time Temperature Precipitation Wind Pressure Humidity
    00:00 0°C° 0.2 mm 3 mps 720 mmHg 85%
    01:00 0°C° 0.2 mm 3 mps 719 mmHg 86%
    02:00 0°C° 0 mm 3 mps 719 mmHg 86%
    03:00 0°C° 0 mm 3 mps 719 mmHg 86%
    04:00 0°C° 0 mm 3 mps 718 mmHg 86%
    05:00 0°C° 0 mm 3 mps 718 mmHg 86%
    06:00 0°C° 0 mm 3 mps 718 mmHg 86%
    07:00 0°C° 0 mm 3 mps 718 mmHg 86%
    08:00 0°C° 0 mm 3 mps 718 mmHg 86%
    09:00 +1°C° 0 mm 3 mps 718 mmHg 85%
    10:00 +1°C° 0 mm 3 mps 718 mmHg 84%
    11:00 +2°C° 0.1 mm 3 mps 718 mmHg 85%
    12:00 +2°C° 0.1 mm 3 mps 718 mmHg 85%
    13:00 +2°C° 0.1 mm 3 mps 718 mmHg 85%
    14:00 +2°C° 0.1 mm 3 mps 718 mmHg 86%
    15:00 +2°C° 0.1 mm 3 mps 718 mmHg 86%
    16:00 +1°C° 0.1 mm 3 mps 718 mmHg 86%
    17:00 +1°C° 0 mm 3 mps 718 mmHg 86%
    18:00 +1°C° 0 mm 3 mps 718 mmHg 86%
    19:00 +1°C° 0 mm 3 mps 718 mmHg 86%
    20:00 0°C° 0.1 mm 4 mps 719 mmHg 86%
    21:00 0°C° 0.1 mm 4 mps 719 mmHg 86%
    22:00 0°C° 0.1 mm 4 mps 719 mmHg 86%
    23:00 0°C° 0.1 mm 4 mps 720 mmHg 86%

    29 January, Tuesday

    Time Temperature Precipitation Wind Pressure Humidity
    00:00 0°C° 0.1 mm 5 mps 720 mmHg 87%
    01:00 0°C° 0.1 mm 5 mps 721 mmHg 87%
    02:00 -2°C° 0 mm 6 mps 721 mmHg 84%
    03:00 -3°C° 0 mm 6 mps 722 mmHg 82%
    04:00 -3°C° 0 mm 7 mps 723 mmHg 79%
    05:00 -3°C° 0.1 mm 7 mps 724 mmHg 80%
    06:00 -3°C° 0.1 mm 7 mps 724 mmHg 81%
    07:00 -3°C° 0.1 mm 7 mps 725 mmHg 82%
    08:00 -3°C° 0 mm 6 mps 726 mmHg 79%
    09:00 -3°C° 0 mm 6 mps 727 mmHg 76%
    10:00 -3°C° 0 mm 6 mps 728 mmHg 74%
    11:00 -2°C° 0 mm 6 mps 728 mmHg 72%
    12:00 -2°C° 0 mm 6 mps 728 mmHg 71%
    13:00 -1°C° 0 mm 5 mps 728 mmHg 70%
    14:00 -1°C° 0 mm 5 mps 728 mmHg 72%
    15:00 -1°C° 0 mm 4 mps 728 mmHg 74%
    16:00 -2°C° 0 mm 4 mps 728 mmHg 76%
    17:00 -2°C° 0 mm 4 mps 729 mmHg 76%
    18:00 -3°C° 0 mm 4 mps 729 mmHg 77%
    19:00 -3°C° 0 mm 4 mps 729 mmHg 77%
    20:00 -3°C° 0 mm 4 mps 729 mmHg 78%
    21:00 -4°C° 0 mm 4 mps 729 mmHg 78%
    22:00 -4°C° 0 mm 4 mps 729 mmHg 79%
    23:00 -3°C° 0 mm 4 mps 729 mmHg 80%
    Show more